Tracking 29892 objects as of 21-Nov-2024
HD Live streaming from Space Station
objects crossing your sky now

STARLINK-3832

Track STARLINK-3832 now!
10-day predictions
STARLINK-3832 is classified as:


NORAD ID: 52646
Int'l Code: 2022-052BA
Perigee: 545.5 km
Apogee: 548.3 km
Inclination: 53.2 °
Period: 95.4 minutes
Semi major axis: 6917 km
RCS: Unknown
Launch date: May 14, 2022
Source: United States (US)
Launch site: AIR FORCE EASTERN TEST RANGE (AFETR)
Your satellite tracking list
Your tracking list is empty




NASA's NSSDC Master Catalog

Two Line Element Set (TLE):
1 52646U 22052BA  24325.18369950  .00000482  00000-0  48396-4 0  9999
2 52646  53.2157 229.2948 0002004  81.9659 278.1561 15.08842116139502
Source of the keplerian elements: AFSPC